Tracking 28096 objects as of 27-Sep-2023
HD Live streaming from Space Station
objects crossing your sky now

ONEWEB-0598

Track ONEWEB-0598 now!
10-day predictions
ONEWEB-0598 is classified as:


NORAD ID: 55154
Int'l Code: 2023-004Q
Perigee: 1,223.2 km
Apogee: 1,226.4 km
Inclination: 87.9 °
Period: 109.8 minutes
Semi major axis: 7595 km
RCS: Unknown
Launch date: January 10, 2023
Source: United Kingdom (UK)
Launch site: AIR FORCE WESTERN TEST RANGE (AFWTR)
Your satellite tracking list
Your tracking list is empty




NASA's NSSDC Master Catalog

Two Line Element Set (TLE):
1 55154U 23004Q   23269.85919665  .00000452  00000-0  12385-2 0  9992
2 55154  87.8953 218.6185 0002140  54.9828 305.1501 13.11416301 35572
Source of the keplerian elements: AFSPC